IRIDIUM 130

Last updated on Tue Sep 22 2026 00:03:21 GMT+0000 (Coordinated Universal Time)

1 43073U 17083D 26264.32429618 .00000037 00000+0 62799-5 0 9998 2 43073 86.3918 282.0906 0002112 87.2063 272.9374 14.34217570457894
UTC large
Height (km)
Speed (km/s)
/
Latitude / Longitude
Inclination (degrees)
Orbital Period (minutes)
Azimuth
Elevation
Range (km)
Doppler Factor

Next 0 passes for location: London (51.5072 / 0.1276)

No passes found over London.
IRIDIUM 130